Home   Weather   Brazzaville   Past weeks

Flag for Congo Past Weather in Brazzaville, Congo — Yesterday and Last 2 Weeks

Now
75 °F

Passing clouds.


Feels Like: 74 °F
Forecast: 71 / 87 °F
Wind: No wind

Location: Brazzaville / Maya-Maya

Current Time: Jan 18, 2017 at 5:30:30 am

Latest Report: Jan 18, 2017 at 4:00 am


Visibility: 5 mi

Pressure: 29.86 "Hg

Humidity: 94%

Dew Point: 73 °F

Location of BrazzavilleLocation

Past Weather in Brazzaville — Graph

°F

Brazzaville Temperature Yesterday

Maximum temperature yesterday: 84 °F (at 1:00 pm)
Minimum temperature yesterday: 70 °F (at 12:00 am)
Average temperature yesterday: 77 °F

High & Low Weather Summary for the Past Weeks

 TemperatureHumidityPressure
High93 °F (Jan 15, 2:00 pm)100% (Jan 5, 4:00 am)30.01 "Hg (Jan 5, 4:00 am)
Low70 °F (Jan 17, 12:00 am)52% (Jan 3, 2:00 pm)29.71 "Hg (Jan 10, 5:00 pm)
Average79 °F80%29.86 "Hg
* Reported Jan 3 4:00 am — Jan 18 4:00 am, Brazzaville, Weather by CustomWeather, © 2017

Note: Actual official high and low records may vary slightly from our data, if they occured in-between our weather recording intervals... More about our weather records

Advertising

Brazzaville Weather History for the Previous 24 Hours

Scroll right to see more
 ConditionsComfort  
Time TempWeatherWind HumidityBarometerVisibility
4:00 am
Wed, Jan 18
75 °FPassing clouds.No wind94%29.86 "Hg5 mi
3:00 am75 °FPassing clouds.No wind94%29.86 "Hg5 mi
2:00 am75 °FPassing clouds.No wind94%29.86 "Hg5 mi
1:00 am75 °FPassing clouds.No wind94%29.86 "Hg6 mi
12:00 am77 °FPassing clouds.No wind89%29.86 "Hg6 mi
11:00 pm
Tue, Jan 17
77 °FClear.No wind94%29.86 "Hg6 mi
10:00 pm77 °FClear.No wind89%29.86 "Hg6 mi
9:00 pm79 °FClear.No wind84%29.83 "Hg6 mi
8:00 pm79 °FClear.No wind84%29.80 "Hg6 mi
7:00 pm81 °FClear.No wind79%29.77 "Hg6 mi
6:00 pm82 °FPassing clouds.5 mph74%29.77 "HgN/A
5:00 pm84 °FPassing clouds.5 mph70%29.77 "HgN/A
4:00 pm84 °FScattered clouds.7 mph70%29.77 "HgN/A
3:00 pm84 °FPartly sunny.3 mph66%29.77 "HgN/A
2:00 pm84 °FPartly sunny.6 mph70%29.80 "HgN/A
1:00 pm84 °FPartly sunny.No wind66%29.83 "HgN/A
12:00 pm82 °FPartly sunny.3 mph70%29.86 "HgN/A
11:00 am79 °FBroken clouds.2 mph74%29.89 "HgN/A
10:00 am77 °FPartly sunny.2 mph79%29.92 "Hg5 mi
9:00 am75 °FPartly sunny.3 mph78%29.92 "Hg5 mi
8:00 am72 °FPassing clouds.3 mph94%29.89 "Hg5 mi
7:00 am72 °FPassing clouds.No wind94%29.86 "Hg5 mi
6:00 am72 °FPassing clouds.1 mph88%29.86 "Hg5 mi
5:00 am72 °FPassing clouds.1 mph94%29.86 "Hg5 mi
Weather by CustomWeather, © 2017

See weather overviewHow to use our weather pages